| time (UTC) | temp F | wind direction | speed knots | gust knots | rain 1hr in | rain 24hr in | rain mn in | humidity % | barometer mb |
| 20260906114538 | 76 | 179 | 0.0 | 0.0 | 0.00 | 0.00 | 0.00 | 98 | 1007.4 |
| 20260906114033 | 76 | 209 | 1.7 | 1.7 | 0.00 | 0.00 | 0.00 | 98 | 1007.5 |
| 20260906113532 | 76 | 184 | 0.0 | 0.0 | 0.00 | 0.00 | 0.00 | 98 | 1007.3 |
| 20260906113028 | 76 | 184 | 0.0 | 0.0 | 0.00 | 0.00 | 0.00 | 98 | 1007.3 |
| 20260906112523 | 76 | 184 | 0.0 | 0.9 | 0.00 | 0.00 | 0.00 | 98 | 1007.3 |
| 20260906112019 | 76 | 184 | 0.0 | 0.0 | 0.00 | 0.00 | 0.00 | 98 | 1007.3 |
| 20260906111518 | 76 | 184 | 0.0 | 0.0 | 0.00 | 0.00 | 0.00 | 98 | 1007.3 |
| 20260906111014 | 76 | 184 | 0.0 | 0.0 | 0.00 | 0.00 | 0.00 | 98 | 1007.1 |
| 20260906110509 | 76 | 184 | 0.0 | 0.0 | 0.00 | 0.00 | 0.00 | 98 | 1006.9 |
| 20260906110008 | 76 | 184 | 0.0 | 0.0 | 0.00 | 0.00 | 0.00 | 98 | 1007.3 |
| 20260906105503 | 76 | 184 | 0.0 | 0.0 | 0.00 | 0.00 | 0.00 | 98 | 1007.2 |
| 20260906104959 | 76 | 184 | 0.0 | 0.0 | 0.00 | 0.00 | 0.00 | 98 | 1007.0 |
| 20260906104457 | 76 | 184 | 0.0 | 0.0 | 0.00 | 0.00 | 0.00 | 98 | 1007.0 |
| 20260906103957 | 76 | 184 | 0.9 | 0.9 | 0.00 | 0.00 | 0.00 | 98 | 1007.0 |
| 20260906103455 | 76 | 184 | 0.0 | 0.0 | 0.00 | 0.00 | 0.00 | 98 | 1007.0 |
| 20260906102950 | 76 | 184 | 0.0 | 0.0 | 0.00 | 0.00 | 0.00 | 98 | 1006.8 |
| 20260906102450 | 76 | 184 | 0.0 | 0.0 | 0.00 | 0.00 | 0.00 | 98 | 1006.8 |
| 20260906101945 | 76 | 184 | 0.0 | 0.0 | 0.00 | 0.00 | 0.00 | 98 | 1006.9 |
| 20260906101440 | 76 | 185 | 0.0 | 0.0 | 0.00 | 0.00 | 0.00 | 98 | 1006.7 |
| 20260906100936 | 76 | 182 | 0.0 | 0.9 | 0.00 | 0.00 | 0.00 | 98 | 1006.9 |
| 20260906100436 | 76 | 182 | 0.0 | 0.0 | 0.00 | 0.00 | 0.00 | 98 | 1006.7 |
| 20260906095930 | 77 | 182 | 0.0 | 0.0 | 0.00 | 0.00 | 0.00 | 98 | 1006.8 |
| 20260906095425 | 77 | 182 | 0.0 | 0.0 | 0.00 | 0.00 | 0.00 | 98 | 1006.6 |
| 20260906094920 | 77 | 183 | 0.0 | 0.0 | 0.00 | 0.00 | 0.00 | 98 | 1006.7 |
| 20260906094414 | 77 | 182 | 0.0 | 0.0 | 0.00 | 0.00 | 0.00 | 98 | 1006.5 |
| 20260906093911 | 77 | 182 | 0.0 | 0.0 | 0.00 | 0.00 | 0.00 | 98 | 1006.6 |
| 20260906093407 | 77 | 182 | 0.0 | 0.0 | 0.00 | 0.00 | 0.00 | 98 | 1006.7 |
| 20260906092901 | 77 | 182 | 0.0 | 0.0 | 0.00 | 0.00 | 0.00 | 98 | 1006.6 |
| 20260906092401 | 77 | 182 | 0.0 | 0.0 | 0.00 | 0.00 | 0.00 | 98 | 1006.5 |
| 20260906091856 | 77 | 182 | 0.0 | 0.0 | 0.00 | 0.00 | 0.00 | 98 | 1006.3 |
| 20260906091352 | 77 | 182 | 0.0 | 0.0 | 0.00 | 0.00 | 0.00 | 98 | 1006.4 |
| 20260906090849 | 77 | 182 | 0.0 | 0.0 | 0.00 | 0.00 | 0.00 | 98 | 1006.5 |
| 20260906090348 | 78 | 182 | 0.0 | 0.0 | 0.00 | 0.00 | 0.00 | 98 | 1006.3 |
| 20260906085842 | 78 | 183 | 0.0 | 0.0 | 0.00 | 0.00 | 0.00 | 98 | 1006.4 |
| 20260906085342 | 78 | 182 | 0.0 | 0.9 | 0.00 | 0.00 | 0.00 | 98 | 1006.4 |
| 20260906084836 | 78 | 182 | 0.0 | 0.0 | 0.00 | 0.00 | 0.00 | 98 | 1006.5 |
| 20260906084336 | 78 | 182 | 0.0 | 0.0 | 0.00 | 0.00 | 0.00 | 98 | 1006.6 |
| 20260906083831 | 78 | 171 | 0.0 | 0.0 | 0.00 | 0.00 | 0.00 | 98 | 1006.4 |
| 20260906083327 | 78 | 183 | 0.9 | 0.9 | 0.00 | 0.00 | 0.00 | 98 | 1006.6 |
| 20260906082826 | 78 | 182 | 0.0 | 0.0 | 0.00 | 0.00 | 0.00 | 98 | 1006.4 |
| 20260906082322 | 78 | 182 | 0.0 | 0.0 | 0.00 | 0.00 | 0.00 | 98 | 1006.5 |
| 20260906081818 | 78 | 182 | 0.0 | 0.0 | 0.00 | 0.00 | 0.00 | 98 | 1006.3 |
| 20260906081313 | 78 | 182 | 0.0 | 0.0 | 0.00 | 0.00 | 0.00 | 98 | 1006.5 |
| 20260906080809 | 78 | 182 | 0.9 | 0.9 | 0.00 | 0.00 | 0.00 | 98 | 1006.4 |
| 20260906080305 | 78 | 182 | 0.0 | 0.0 | 0.00 | 0.00 | 0.00 | 98 | 1006.5 |
| 20260906075804 | 78 | 182 | 0.0 | 0.0 | 0.00 | 0.00 | 0.00 | 98 | 1006.3 |
| 20260906075306 | 78 | 183 | 0.0 | 0.0 | 0.00 | 0.00 | 0.00 | 98 | 1006.5 |
| 20260906074800 | 78 | 183 | 0.9 | 0.9 | 0.00 | 0.00 | 0.00 | 98 | 1006.3 |
| 20260906074259 | 78 | 171 | 0.0 | 0.0 | 0.00 | 0.00 | 0.00 | 98 | 1006.5 |
| 20260906073758 | 78 | 171 | 0.0 | 0.0 | 0.00 | 0.00 | 0.00 | 98 | 1006.8 |
| 20260906073253 | 78 | 171 | 0.0 | 0.0 | 0.00 | 0.00 | 0.00 | 98 | 1006.6 |
| 20260906072749 | 78 | 173 | 0.0 | 0.9 | 0.00 | 0.00 | 0.00 | 98 | 1006.4 |
| 20260906072245 | 78 | 167 | 0.0 | 0.0 | 0.00 | 0.00 | 0.00 | 98 | 1006.4 |
| 20260906071741 | 78 | 167 | 0.0 | 0.0 | 0.00 | 0.00 | 0.00 | 98 | 1006.4 |
| 20260906071240 | 78 | 167 | 0.0 | 0.0 | 0.00 | 0.00 | 0.00 | 98 | 1006.4 |
| 20260906070737 | 78 | 167 | 0.0 | 0.0 | 0.00 | 0.00 | 0.00 | 98 | 1006.6 |
| 20260906070233 | 78 | 167 | 0.0 | 0.0 | 0.00 | 0.00 | 0.00 | 98 | 1006.4 |
| 20260906065732 | 78 | 167 | 0.0 | 0.0 | 0.00 | 0.00 | 0.00 | 98 | 1006.5 |
| 20260906065227 | 78 | 167 | 0.0 | 0.0 | 0.00 | 0.00 | 0.00 | 98 | 1006.8 |
| 20260906064723 | 78 | 167 | 0.0 | 0.0 | 0.00 | 0.00 | 0.00 | 98 | 1006.7 |
| 20260906064218 | 78 | 167 | 0.0 | 0.0 | 0.00 | 0.00 | 0.00 | 98 | 1006.4 |
| 20260906063713 | 78 | 167 | 0.0 | 0.0 | 0.00 | 0.00 | 0.00 | 98 | 1006.4 |
| 20260906063209 | 78 | 167 | 0.0 | 0.0 | 0.00 | 0.00 | 0.00 | 98 | 1006.8 |
| 20260906062705 | 78 | 167 | 0.0 | 0.0 | 0.00 | 0.00 | 0.00 | 98 | 1006.6 |
| 20260906062203 | 78 | 167 | 0.0 | 0.0 | 0.00 | 0.00 | 0.00 | 97 | 1006.7 |
| 20260906061659 | 78 | 167 | 0.0 | 0.0 | 0.00 | 0.00 | 0.00 | 97 | 1006.9 |
| 20260906061155 | 78 | 167 | 0.0 | 0.0 | 0.00 | 0.00 | 0.00 | 97 | 1006.8 |
| 20260906060651 | 78 | 167 | 0.0 | 0.0 | 0.00 | 0.00 | 0.00 | 97 | 1007.0 |
| 20260906060148 | 78 | 167 | 0.0 | 0.0 | 0.00 | 0.00 | 0.00 | 97 | 1006.9 |
| 20260906055643 | 78 | 167 | 0.0 | 0.0 | 0.00 | 0.00 | 0.00 | 97 | 1007.2 |
| 20260906055138 | 79 | 167 | 0.0 | 0.0 | 0.00 | 0.00 | 0.00 | 97 | 1007.0 |
| 20260906054634 | 79 | 167 | 0.0 | 0.0 | 0.00 | 0.00 | 0.00 | 97 | 1007.2 |
| 20260906054128 | 79 | 167 | 0.0 | 0.0 | 0.00 | 0.00 | 0.00 | 97 | 1007.0 |
| 20260906053625 | 79 | 167 | 0.0 | 0.0 | 0.00 | 0.00 | 0.00 | 97 | 1006.9 |
| 20260906053120 | 79 | 167 | 0.0 | 0.0 | 0.00 | 0.00 | 0.00 | 97 | 1007.1 |
| 20260906052615 | 79 | 167 | 0.0 | 0.0 | 0.00 | 0.00 | 0.00 | 97 | 1007.1 |
| 20260906052112 | 79 | 167 | 0.0 | 0.0 | 0.00 | 0.00 | 0.00 | 97 | 1007.3 |
| 20260906051608 | 79 | 167 | 0.0 | 0.0 | 0.00 | 0.00 | 0.00 | 97 | 1007.3 |
| 20260906051103 | 79 | 167 | 0.0 | 0.0 | 0.00 | 0.00 | 0.00 | 97 | 1007.2 |
| 20260906050558 | 79 | 167 | 0.0 | 0.0 | 0.00 | 0.00 | 0.00 | 97 | 1007.2 |
| 20260906050054 | 79 | 167 | 0.0 | 0.0 | 0.00 | 0.00 | 0.00 | 97 | 1007.1 |
| 20260906045551 | 79 | 167 | 0.0 | 0.0 | 0.00 | 0.00 | 0.00 | 97 | 1007.1 |
| 20260906045047 | 79 | 167 | 0.0 | 0.0 | 0.00 | 0.00 | 0.00 | 96 | 1007.2 |
| 20260906044542 | 79 | 167 | 0.0 | 0.0 | 0.00 | 0.00 | 0.00 | 96 | 1007.1 |
| 20260906044038 | 79 | 177 | 0.0 | 0.0 | 0.00 | 0.00 | 0.00 | 96 | 1007.3 |
| 20260906043533 | 80 | 190 | 0.0 | 0.9 | 0.00 | 0.00 | 0.00 | 96 | 1007.4 |
| 20260906043030 | 80 | 152 | 0.0 | 0.0 | 0.00 | 0.00 | 0.00 | 96 | 1007.4 |
| 20260906042528 | 80 | 151 | 0.0 | 0.0 | 0.00 | 0.00 | 0.00 | 96 | 1007.3 |
| 20260906042023 | 80 | 151 | 0.0 | 0.0 | 0.00 | 0.00 | 0.00 | 96 | 1007.3 |
| 20260906041520 | 80 | 151 | 0.0 | 0.0 | 0.00 | 0.00 | 0.00 | 96 | 1007.7 |
| 20260906041019 | 80 | 151 | 0.0 | 0.0 | 0.00 | 0.00 | 0.00 | 96 | 1007.5 |
| 20260906040515 | 80 | 150 | 0.0 | 0.0 | 0.00 | 0.00 | 0.00 | 96 | 1007.3 |
| 20260906040010 | 80 | 151 | 0.0 | 0.0 | 0.00 | 0.00 | 0.00 | 96 | 1007.6 |
| 20260906035505 | 80 | 150 | 0.0 | 0.0 | 0.00 | 0.00 | 0.00 | 96 | 1007.6 |
| 20260906035001 | 80 | 151 | 0.0 | 0.0 | 0.00 | 0.00 | 0.00 | 95 | 1007.6 |
| 20260906034500 | 80 | 151 | 0.0 | 0.0 | 0.00 | 0.00 | 0.00 | 95 | 1007.6 |
| 20260906033955 | 80 | 151 | 0.0 | 0.0 | 0.00 | 0.00 | 0.00 | 95 | 1007.5 |
| 20260906033450 | 80 | 143 | 0.0 | 0.0 | 0.00 | 0.00 | 0.00 | 95 | 1007.7 |
| 20260906032946 | 80 | 146 | 0.0 | 0.0 | 0.00 | 0.00 | 0.00 | 95 | 1007.6 |
| 20260906032443 | 80 | 138 | 0.0 | 0.9 | 0.00 | 0.00 | 0.00 | 95 | 1008.0 |
| 20260906031942 | 80 | 153 | 0.0 | 0.9 | 0.00 | 0.00 | 0.00 | 95 | 1008.0 |
| 20260906031437 | 80 | 154 | 0.0 | 0.0 | 0.00 | 0.00 | 0.00 | 95 | 1007.6 |
| 20260906030933 | 80 | 154 | 0.0 | 0.9 | 0.00 | 0.00 | 0.00 | 95 | 1008.1 |
| 20260906030427 | 80 | 154 | 0.0 | 0.0 | 0.00 | 0.00 | 0.00 | 95 | 1008.0 |
| 20260906025922 | 80 | 178 | 0.0 | 0.0 | 0.00 | 0.00 | 0.00 | 95 | 1007.8 |
| 20260906025416 | 80 | 157 | 0.9 | 0.9 | 0.00 | 0.00 | 0.00 | 94 | 1007.7 |
| 20260906024915 | 80 | 177 | 1.7 | 1.7 | 0.00 | 0.00 | 0.00 | 94 | 1007.6 |
| 20260906024415 | 80 | 169 | 0.0 | 0.0 | 0.00 | 0.00 | 0.00 | 94 | 1007.5 |
| 20260906023910 | 80 | 160 | 0.9 | 0.9 | 0.00 | 0.00 | 0.00 | 94 | 1007.7 |
| 20260906023407 | 80 | 151 | 0.0 | 0.9 | 0.00 | 0.00 | 0.00 | 94 | 1007.8 |
| 20260906022906 | 80 | 160 | 0.0 | 0.0 | 0.00 | 0.00 | 0.00 | 94 | 1007.6 |
| 20260906022402 | 80 | 160 | 0.0 | 0.0 | 0.00 | 0.00 | 0.00 | 94 | 1007.5 |
| 20260906021857 | 80 | 133 | 0.0 | 0.0 | 0.00 | 0.00 | 0.00 | 94 | 1007.5 |
| 20260906021356 | 80 | 153 | 0.0 | 0.0 | 0.00 | 0.00 | 0.00 | 94 | 1007.6 |
| 20260906020851 | 80 | 188 | 0.9 | 0.9 | 0.00 | 0.00 | 0.00 | 94 | 1007.8 |
| 20260906020350 | 80 | 159 | 0.9 | 0.9 | 0.00 | 0.00 | 0.00 | 94 | 1007.7 |
| 20260906015845 | 80 | 178 | 0.0 | 0.0 | 0.00 | 0.00 | 0.00 | 94 | 1007.7 |
| 20260906015344 | 81 | 178 | 0.0 | 0.0 | 0.00 | 0.00 | 0.00 | 93 | 1007.7 |
| 20260906014839 | 81 | 178 | 0.0 | 0.0 | 0.00 | 0.00 | 0.00 | 93 | 1007.5 |
| 20260906014333 | 81 | 178 | 0.0 | 0.0 | 0.00 | 0.00 | 0.00 | 93 | 1007.7 |
| 20260906013830 | 81 | 178 | 0.0 | 0.0 | 0.00 | 0.00 | 0.00 | 92 | 1007.6 |
| 20260906013325 | 81 | 178 | 0.0 | 0.0 | 0.00 | 0.00 | 0.00 | 92 | 1007.8 |
| 20260906012820 | 81 | 178 | 0.0 | 0.0 | 0.00 | 0.00 | 0.00 | 93 | 1007.6 |
| 20260906012315 | 81 | 178 | 0.0 | 0.0 | 0.00 | 0.00 | 0.00 | 93 | 1007.4 |
| 20260906011810 | 81 | 178 | 0.0 | 0.0 | 0.00 | 0.00 | 0.00 | 93 | 1007.3 |
| 20260906011310 | 81 | 178 | 0.0 | 0.0 | 0.00 | 0.00 | 0.00 | 92 | 1007.2 |
| 20260906010806 | 81 | 178 | 0.0 | 0.0 | 0.00 | 0.00 | 0.00 | 92 | 1007.1 |
| 20260906010302 | 81 | 178 | 0.0 | 0.0 | 0.00 | 0.00 | 0.00 | 92 | 1007.1 |
| 20260906005756 | 82 | 178 | 0.0 | 0.0 | 0.00 | 0.00 | 0.00 | 92 | 1007.0 |
| 20260906005255 | 82 | 178 | 0.0 | 0.0 | 0.00 | 0.00 | 0.00 | 91 | 1007.1 |
| 20260906004754 | 82 | 178 | 0.0 | 0.0 | 0.00 | 0.00 | 0.00 | 91 | 1007.1 |
| 20260906004249 | 82 | 178 | 0.0 | 0.0 | 0.00 | 0.00 | 0.00 | 90 | 1006.9 |
| 20260906003744 | 82 | 178 | 0.0 | 0.0 | 0.00 | 0.00 | 0.00 | 90 | 1006.6 |
| 20260906003240 | 82 | 178 | 0.0 | 0.0 | 0.00 | 0.00 | 0.00 | 90 | 1007.0 |
| 20260906002735 | 83 | 178 | 0.0 | 0.0 | 0.00 | 0.00 | 0.00 | 89 | 1007.1 |
| 20260906002234 | 83 | 178 | 0.0 | 0.0 | 0.00 | 0.00 | 0.00 | 89 | 1007.0 |
| 20260906001730 | 83 | 178 | 0.0 | 0.0 | 0.00 | 0.00 | 0.00 | 89 | 1007.0 |
| 20260906001225 | 83 | 178 | 0.0 | 0.0 | 0.00 | 0.00 | 0.00 | 88 | 1007.1 |
| 20260906000720 | 83 | 178 | 0.0 | 0.0 | 0.00 | 0.00 | 0.00 | 87 | 1007.0 |
| 20260906000215 | 84 | 178 | 0.9 | 0.9 | 0.00 | 0.00 | 0.00 | 87 | 1007.0 |
| 20260905235715 | 84 | 178 | 0.0 | 0.0 | 0.00 | 0.00 | 0.00 | 87 | 1007.0 |
| 20260905235210 | 84 | 178 | 0.0 | 0.0 | 0.00 | 0.00 | 0.00 | 86 | 1006.9 |
| 20260905234705 | 84 | 178 | 0.0 | 0.0 | 0.00 | 0.00 | 0.00 | 86 | 1007.0 |
| 20260905234200 | 84 | 178 | 0.0 | 0.9 | 0.00 | 0.00 | 0.00 | 85 | 1006.8 |
| 20260905233656 | 84 | 178 | 0.0 | 0.9 | 0.00 | 0.00 | 0.00 | 84 | 1006.8 |
| 20260905233155 | 84 | 178 | 0.0 | 0.0 | 0.00 | 0.00 | 0.00 | 85 | 1007.0 |
| 20260905232650 | 84 | 178 | 0.0 | 0.0 | 0.00 | 0.00 | 0.00 | 84 | 1006.8 |
| 20260905232146 | 84 | 178 | 0.0 | 0.0 | 0.00 | 0.00 | 0.00 | 84 | 1006.8 |
| 20260905231641 | 85 | 178 | 0.0 | 0.0 | 0.00 | 0.00 | 0.00 | 83 | 1006.9 |
| 20260905231137 | 85 | 178 | 0.0 | 0.0 | 0.00 | 0.00 | 0.00 | 81 | 1006.7 |
| 20260905230633 | 85 | 178 | 0.0 | 0.9 | 0.00 | 0.00 | 0.00 | 81 | 1006.6 |
| 20260905230131 | 86 | 178 | 0.0 | 0.0 | 0.00 | 0.00 | 0.00 | 83 | 1006.6 |
| 20260905225630 | 86 | 178 | 0.0 | 0.0 | 0.00 | 0.00 | 0.00 | 81 | 1006.7 |
| 20260905225126 | 86 | 178 | 0.0 | 0.0 | 0.00 | 0.00 | 0.00 | 80 | 1006.9 |
| 20260905224625 | 87 | 178 | 0.0 | 0.0 | 0.00 | 0.00 | 0.00 | 81 | 1006.9 |
| 20260905224125 | 87 | 178 | 0.0 | 0.0 | 0.00 | 0.00 | 0.00 | 79 | 1006.7 |
| 20260905223622 | 87 | 178 | 0.0 | 0.0 | 0.00 | 0.00 | 0.00 | 77 | 1006.5 |
| 20260905223118 | 87 | 178 | 0.0 | 0.0 | 0.00 | 0.00 | 0.00 | 76 | 1006.8 |
| 20260905222619 | 88 | 178 | 0.0 | 0.0 | 0.00 | 0.00 | 0.00 | 75 | 1006.7 |
| 20260905222114 | 88 | 178 | 0.0 | 0.0 | 0.00 | 0.00 | 0.00 | 74 | 1006.8 |
| 20260905221609 | 89 | 178 | 0.0 | 0.9 | 0.00 | 0.00 | 0.00 | 70 | 1006.7 |
| 20260905221106 | 89 | 178 | 0.0 | 0.0 | 0.00 | 0.00 | 0.00 | 70 | 1006.9 |
| 20260905220601 | 91 | 180 | 0.9 | 0.9 | 0.00 | 0.00 | 0.00 | 68 | 1006.8 |
| 20260905220057 | 92 | 180 | 0.0 | 0.0 | 0.00 | 0.00 | 0.00 | 66 | 1006.9 |
| 20260905215556 | 92 | 183 | 0.9 | 0.9 | 0.00 | 0.00 | 0.00 | 63 | 1006.8 |
| 20260905215052 | 90 | 168 | 0.9 | 0.9 | 0.00 | 0.00 | 0.00 | 65 | 1006.8 |
| 20260905214548 | 90 | 170 | 0.9 | 0.9 | 0.00 | 0.00 | 0.00 | 67 | 1006.7 |
| 20260905214043 | 91 | 170 | 0.9 | 0.9 | 0.00 | 0.00 | 0.00 | 66 | 1007.0 |
| 20260905213538 | 92 | 176 | 0.9 | 0.9 | 0.00 | 0.00 | 0.00 | 65 | 1007.1 |
| 20260905213033 | 93 | 185 | 0.0 | 0.9 | 0.00 | 0.00 | 0.00 | 61 | 1006.9 |
| 20260905212528 | 93 | 204 | 4.3 | 6.1 | 0.00 | 0.00 | 0.00 | 61 | 1007.0 |
| 20260905212028 | 94 | 183 | 2.6 | 2.6 | 0.00 | 0.00 | 0.00 | 62 | 1006.8 |
| 20260905211523 | 93 | 154 | 0.9 | 0.9 | 0.00 | 0.00 | 0.00 | 63 | 1006.9 |
| 20260905211019 | 93 | 156 | 0.9 | 0.9 | 0.00 | 0.00 | 0.00 | 62 | 1006.8 |
| 20260905210515 | 91 | 74 | 0.0 | 0.9 | 0.00 | 0.00 | 0.00 | 62 | 1007.1 |
| 20260905210014 | 92 | 74 | 0.0 | 0.9 | 0.00 | 0.00 | 0.00 | 64 | 1006.8 |
| 20260905205509 | 94 | 167 | 0.0 | 0.9 | 0.00 | 0.00 | 0.00 | 61 | 1006.8 |
| 20260905205008 | 93 | 153 | 0.0 | 0.0 | 0.00 | 0.00 | 0.00 | 63 | 1006.9 |
| 20260905204503 | 92 | 209 | 0.0 | 0.9 | 0.00 | 0.00 | 0.00 | 65 | 1006.8 |
| 20260905204003 | 93 | 181 | 0.9 | 0.9 | 0.00 | 0.00 | 0.00 | 61 | 1006.7 |
| 20260905203458 | 93 | 187 | 0.0 | 0.9 | 0.00 | 0.00 | 0.00 | 62 | 1006.5 |
| 20260905202953 | 93 | 158 | 0.0 | 0.0 | 0.00 | 0.00 | 0.00 | 61 | 1006.5 |
| 20260905202448 | 93 | 213 | 2.6 | 4.3 | 0.00 | 0.00 | 0.00 | 64 | 1006.6 |
| 20260905201944 | 93 | 347 | 1.7 | 1.7 | 0.00 | 0.00 | 0.00 | 61 | 1006.5 |
| 20260905201439 | 93 | 199 | 1.7 | 1.7 | 0.00 | 0.00 | 0.00 | 63 | 1006.6 |
| 20260905200938 | 93 | 176 | 1.7 | 1.7 | 0.00 | 0.00 | 0.00 | 65 | 1006.6 |
| 20260905200435 | 93 | 229 | 4.3 | 5.2 | 0.00 | 0.00 | 0.00 | 63 | 1007.0 |
| 20260905195933 | 93 | 206 | 3.5 | 5.2 | 0.00 | 0.00 | 0.00 | 65 | 1006.9 |
| 20260905195428 | 93 | 180 | 0.9 | 0.9 | 0.00 | 0.00 | 0.00 | 63 | 1007.0 |
| 20260905194924 | 93 | 164 | 0.9 | 0.9 | 0.00 | 0.00 | 0.00 | 66 | 1007.0 |
| 20260905194423 | 92 | 71 | 2.6 | 2.6 | 0.00 | 0.00 | 0.00 | 63 | 1007.1 |
| 20260905193923 | 92 | 183 | 2.6 | 2.6 | 0.00 | 0.00 | 0.00 | 64 | 1007.4 |
| 20260905193418 | 91 | 145 | 0.9 | 0.9 | 0.00 | 0.00 | 0.00 | 66 | 1007.2 |
| 20260905192913 | 91 | 101 | 0.9 | 0.9 | 0.00 | 0.00 | 0.00 | 68 | 1007.4 |
| 20260905192409 | 91 | 175 | 0.0 | 0.0 | 0.00 | 0.00 | 0.00 | 64 | 1007.5 |
| 20260905191909 | 91 | 173 | 0.0 | 0.9 | 0.00 | 0.00 | 0.00 | 68 | 1007.6 |
| 20260905191408 | 91 | 198 | 1.7 | 2.6 | 0.00 | 0.00 | 0.00 | 65 | 1007.6 |
| 20260905190903 | 91 | 76 | 2.6 | 2.6 | 0.00 | 0.00 | 0.00 | 65 | 1007.7 |
| 20260905190400 | 91 | 188 | 0.0 | 0.9 | 0.00 | 0.00 | 0.00 | 65 | 1008.0 |
| 20260905185859 | 91 | 183 | 0.9 | 0.9 | 0.00 | 0.00 | 0.00 | 65 | 1008.1 |
| 20260905185354 | 91 | 188 | 0.9 | 0.9 | 0.00 | 0.00 | 0.00 | 65 | 1008.0 |
| 20260905184854 | 91 | 199 | 0.9 | 0.9 | 0.00 | 0.00 | 0.00 | 64 | 1008.2 |
| 20260905184353 | 91 | 218 | 2.6 | 2.6 | 0.00 | 0.00 | 0.00 | 65 | 1008.2 |
| 20260905183851 | 90 | 218 | 3.5 | 4.3 | 0.00 | 0.00 | 0.00 | 68 | 1008.3 |
| 20260905183347 | 91 | 199 | 1.7 | 1.7 | 0.00 | 0.00 | 0.00 | 66 | 1008.2 |
| 20260905182842 | 90 | 201 | 2.6 | 2.6 | 0.00 | 0.00 | 0.00 | 69 | 1008.4 |
| 20260905182341 | 89 | 179 | 1.7 | 1.7 | 0.00 | 0.00 | 0.00 | 72 | 1008.6 |
| 20260905181837 | 89 | 179 | 0.9 | 1.7 | 0.00 | 0.00 | 0.00 | 69 | 1008.7 |
| 20260905181336 | 90 | 233 | 4.3 | 5.2 | 0.00 | 0.00 | 0.00 | 71 | 1008.8 |
| 20260905180835 | 89 | 169 | 0.9 | 0.9 | 0.00 | 0.00 | 0.00 | 70 | 1008.8 |
| 20260905180331 | 88 | 111 | 0.0 | 0.9 | 0.00 | 0.00 | 0.00 | 72 | 1008.8 |
| 20260905175825 | 89 | 189 | 0.9 | 1.7 | 0.00 | 0.00 | 0.00 | 69 | 1009.0 |
| 20260905175320 | 89 | 246 | 3.5 | 5.2 | 0.00 | 0.00 | 0.00 | 71 | 1009.1 |
| 20260905174815 | 88 | 154 | 0.9 | 0.9 | 0.00 | 0.00 | 0.00 | 72 | 1009.0 |
| 20260905174311 | 88 | 183 | 2.6 | 4.3 | 0.00 | 0.00 | 0.00 | 74 | 1009.0 |
| 20260905173807 | 88 | 163 | 0.0 | 0.0 | 0.00 | 0.00 | 0.00 | 72 | 1009.4 |
| 20260905173302 | 88 | 355 | 2.6 | 2.6 | 0.00 | 0.00 | 0.00 | 71 | 1009.3 |
| 20260905172802 | 87 | 192 | 2.6 | 2.6 | 0.00 | 0.00 | 0.00 | 74 | 1009.6 |
| 20260905172301 | 87 | 184 | 1.7 | 1.7 | 0.00 | 0.00 | 0.00 | 75 | 1009.4 |
| 20260905171757 | 87 | 209 | 0.9 | 1.7 | 0.00 | 0.00 | 0.00 | 73 | 1009.5 |
| 20260905171253 | 87 | 163 | 1.7 | 1.7 | 0.00 | 0.00 | 0.00 | 75 | 1009.5 |
| 20260905170749 | 87 | 212 | 2.6 | 2.6 | 0.00 | 0.00 | 0.00 | 75 | 1009.7 |
| 20260905170245 | 86 | 232 | 3.5 | 5.2 | 0.00 | 0.00 | 0.00 | 76 | 1009.6 |
| 20260905165744 | 86 | 166 | 0.9 | 1.7 | 0.00 | 0.00 | 0.00 | 76 | 1009.6 |
| 20260905165240 | 86 | 186 | 2.6 | 2.6 | 0.00 | 0.00 | 0.00 | 76 | 1009.7 |
| 20260905164740 | 85 | 175 | 0.9 | 0.9 | 0.00 | 0.00 | 0.00 | 78 | 1009.8 |
| 20260905164234 | 86 | 183 | 0.9 | 1.7 | 0.00 | 0.00 | 0.00 | 74 | 1010.1 |
| 20260905163730 | 86 | 190 | 3.5 | 4.3 | 0.00 | 0.00 | 0.00 | 78 | 1009.9 |
| 20260905163226 | 86 | 227 | 4.3 | 5.2 | 0.00 | 0.00 | 0.00 | 78 | 1010.1 |
| 20260905162722 | 86 | 175 | 2.6 | 2.6 | 0.00 | 0.00 | 0.00 | 77 | 1010.2 |
| 20260905162222 | 86 | 213 | 3.5 | 4.3 | 0.00 | 0.00 | 0.00 | 76 | 1010.3 |
| 20260905161717 | 85 | 202 | 0.9 | 0.9 | 0.00 | 0.00 | 0.00 | 79 | 1010.3 |
| 20260905161215 | 84 | 217 | 4.3 | 5.2 | 0.00 | 0.00 | 0.00 | 81 | 1010.2 |
| 20260905160713 | 84 | 194 | 1.7 | 1.7 | 0.00 | 0.00 | 0.00 | 80 | 1010.4 |
| 20260905160208 | 83 | 153 | 0.0 | 0.0 | 0.00 | 0.00 | 0.00 | 83 | 1010.4 |
| 20260905155702 | 84 | 177 | 2.6 | 2.6 | 0.00 | 0.00 | 0.00 | 81 | 1010.4 |
| 20260905155202 | 84 | 194 | 2.6 | 5.2 | 0.00 | 0.00 | 0.00 | 80 | 1010.5 |
| 20260905154655 | 84 | 210 | 2.6 | 4.3 | 0.00 | 0.00 | 0.00 | 82 | 1010.8 |
| 20260905154151 | 83 | 157 | 2.6 | 2.6 | 0.00 | 0.00 | 0.00 | 83 | 1010.5 |
| 20260905153647 | 84 | 171 | 0.9 | 0.9 | 0.00 | 0.00 | 0.00 | 81 | 1010.7 |
| 20260905153142 | 83 | 164 | 0.0 | 0.9 | 0.00 | 0.00 | 0.00 | 81 | 1010.8 |
| 20260905152637 | 83 | 144 | 0.0 | 0.9 | 0.00 | 0.00 | 0.00 | 82 | 1010.6 |
| 20260905152132 | 82 | 169 | 0.9 | 0.9 | 0.00 | 0.00 | 0.00 | 84 | 1010.7 |
| 20260905151626 | 83 | 182 | 0.9 | 0.9 | 0.00 | 0.00 | 0.00 | 84 | 1010.8 |
| 20260905151117 | 83 | 217 | 0.9 | 1.7 | 0.00 | 0.00 | 0.00 | 83 | 1010.7 |
| 20260905150612 | 83 | 180 | 1.7 | 1.7 | 0.00 | 0.00 | 0.00 | 84 | 1010.8 |
| 20260905150110 | 83 | 196 | 1.7 | 1.7 | 0.00 | 0.00 | 0.00 | 83 | 1010.6 |
| 20260905145609 | 82 | 176 | 1.7 | 1.7 | 0.00 | 0.00 | 0.00 | 84 | 1010.6 |
| 20260905145108 | 82 | 194 | 0.9 | 1.7 | 0.00 | 0.00 | 0.00 | 85 | 1010.8 |
| 20260905144602 | 82 | 227 | 1.7 | 1.7 | 0.00 | 0.00 | 0.00 | 86 | 1010.8 |
| 20260905144056 | 81 | 192 | 0.0 | 0.9 | 0.00 | 0.00 | 0.00 | 87 | 1010.6 |
| 20260905143555 | 81 | 197 | 0.9 | 1.7 | 0.00 | 0.00 | 0.00 | 87 | 1010.9 |
| 20260905143051 | 81 | 215 | 1.7 | 2.6 | 0.00 | 0.00 | 0.00 | 88 | 1010.7 |
| 20260905142549 | 81 | 206 | 2.6 | 4.3 | 0.00 | 0.00 | 0.00 | 87 | 1010.9 |
| 20260905142044 | 81 | 186 | 0.9 | 0.9 | 0.00 | 0.00 | 0.00 | 87 | 1010.8 |
| 20260905141539 | 81 | 1 | 2.6 | 2.6 | 0.00 | 0.00 | 0.00 | 86 | 1010.9 |
| 20260905141035 | 81 | 189 | 1.7 | 1.7 | 0.00 | 0.00 | 0.00 | 86 | 1010.8 |
| 20260905140530 | 81 | 93 | 0.0 | 0.9 | 0.00 | 0.00 | 0.00 | 87 | 1010.6 |
| 20260905140029 | 81 | 192 | 1.7 | 2.6 | 0.00 | 0.00 | 0.00 | 87 | 1010.7 |
| 20260905135524 | 80 | 166 | 0.0 | 0.0 | 0.00 | 0.00 | 0.00 | 90 | 1010.8 |
| 20260905135020 | 80 | 35 | 0.9 | 0.9 | 0.00 | 0.00 | 0.00 | 88 | 1010.8 |
| 20260905134520 | 80 | 114 | 0.9 | 0.9 | 0.00 | 0.00 | 0.00 | 90 | 1010.7 |
| 20260905134019 | 79 | 151 | 0.0 | 0.9 | 0.00 | 0.00 | 0.00 | 92 | 1011.1 |
| 20260905133514 | 79 | 158 | 0.9 | 0.9 | 0.00 | 0.00 | 0.00 | 92 | 1010.9 |
| 20260905133014 | 79 | 201 | 0.9 | 1.7 | 0.00 | 0.00 | 0.00 | 94 | 1010.6 |
| 20260905132508 | 78 | 129 | 0.9 | 0.9 | 0.00 | 0.00 | 0.00 | 96 | 1010.9 |
| 20260905132003 | 78 | 196 | 0.9 | 0.9 | 0.00 | 0.00 | 0.00 | 96 | 1010.9 |
| 20260905131459 | 78 | 127 | 0.9 | 0.9 | 0.00 | 0.00 | 0.00 | 98 | 1010.9 |
| 20260905130954 | 78 | 166 | 0.9 | 0.9 | 0.00 | 0.00 | 0.00 | 99 | 1010.8 |
| 20260905130453 | 77 | 168 | 0.0 | 0.9 | 0.00 | 0.00 | 0.00 | 99 | 1010.8 |
| 20260905125952 | 77 | 176 | 0.0 | 0.9 | 0.00 | 0.00 | 0.00 | 99 | 1011.0 |
| 20260905125447 | 77 | 177 | 0.0 | 0.9 | 0.00 | 0.00 | 0.00 | 99 | 1010.6 |
| 20260905124943 | 77 | 176 | 0.9 | 1.7 | 0.00 | 0.00 | 0.00 | 99 | 1010.8 |
| 20260905124439 | 77 | 163 | 0.0 | 0.0 | 0.00 | 0.00 | 0.00 | 99 | 1010.6 |
| 20260905123934 | 76 | 159 | 0.0 | 0.0 | 0.00 | 0.00 | 0.00 | 99 | 1010.7 |
| 20260905123431 | 76 | 176 | 0.0 | 0.0 | 0.00 | 0.00 | 0.00 | 99 | 1010.6 |
| 20260905122926 | 76 | 155 | 0.9 | 0.9 | 0.00 | 0.00 | 0.00 | 99 | 1010.4 |
| 20260905122425 | 76 | 173 | 0.0 | 0.0 | 0.00 | 0.00 | 0.00 | 99 | 1010.4 |
| 20260905121921 | 76 | 162 | 0.9 | 1.7 | 0.00 | 0.00 | 0.00 | 99 | 1010.7 |
| 20260905121416 | 76 | 142 | 0.0 | 0.0 | 0.00 | 0.00 | 0.00 | 99 | 1010.5 |
| 20260905120915 | 76 | 166 | 0.0 | 0.9 | 0.00 | 0.00 | 0.00 | 99 | 1010.2 |
| 20260905120415 | 76 | 152 | 0.0 | 0.0 | 0.00 | 0.00 | 0.00 | 99 | 1010.4 |
| 20260905115911 | 76 | 167 | 0.0 | 0.9 | 0.00 | 0.00 | 0.00 | 99 | 1010.2 |
| 20260905115410 | 76 | 147 | 0.9 | 0.9 | 0.00 | 0.00 | 0.00 | 99 | 1010.2 |
| 20260905114905 | 76 | 131 | 0.0 | 0.9 | 0.00 | 0.00 | 0.00 | 99 | 1010.1 |